Weather History for Ada, OK

Change the Weather History Date:

Friday, November 23, 2012

  Actual Average Record
Temperature  
Mean Temperature 46 °F -  
Max Temperature 57 °F 61 °F 83 °F (1966)
Min Temperature 33 °F 38 °F 20 °F (1945)
Degree Days  
Heating Degree Days 19    
Moisture  
Dew Point 31 °F    
Average Humidity 53    
Maximum Humidity 94    
Minimum Humidity 35    
Precipitation  
Precipitation 0.00 in - - ()
Sea Level Pressure  
Sea Level Pressure 30.41 in    
Wind  
Wind Speed 15 mph (North)    
Max Wind Speed 23 mph    
Max Gust Speed 33 mph    
Visibility 10 miles    
Events      
Averages and records for this station are not official NWS values.
T = Trace of Precipitation, MM = Missing Value Source: NWS Daily Summary

Daily Weather History Graph

Daily Weather History Graph

Search for Another Location

Airport:

Trip Planner

Search our weather history database for the weather conditions in past years. The results will help you decide how hot, cold, wet, or windy it might be!

Date:

Astronomy

Nov. 23, 2012 Rise Set
Actual Time 7:08 AM CST 5:17 PM CST
Civil Twilight 6:41 AM CST 5:44 PM CST
Nautical Twilight 6:10 AM CST 6:15 PM CST
Astronomical Twilight 5:40 AM CST 6:45 PM CST
Moon 2:24 PM CST (11/23) 2:38 AM CST (11/23)
Length of Visible Light 11h 02m
Length of Day
10h 08m
Waxing Gibbous, 80% of the Moon is Illuminated
Nov 23
Waxing Gibbous
Nov 28
Full
Dec 6
Last Quarter
Dec 13
New
Dec 19
First Quarter

Hourly Weather History & Observations

Time (CST) Temp. Windchill Dew Point Humidity Pressure Visibility Wind Dir Wind Speed Gust Speed Precip Events Conditions
12:15 AM 57.2 °F - 55.4 °F 94% 30.19 in 10.0 mi North 13.8 mph 20.7 mph N/A   Overcast
12:55 AM 57.2 °F - 50.0 °F 77% 30.21 in 10.0 mi NNE 13.8 mph - N/A   Overcast
1:15 AM 57.2 °F - 48.2 °F 72% 30.21 in 10.0 mi North 17.3 mph 26.5 mph N/A   Overcast
1:35 AM 55.4 °F - 46.4 °F 72% 30.22 in 10.0 mi NNE 19.6 mph 28.8 mph N/A   Overcast
1:55 AM 55.4 °F - 44.6 °F 67% 30.23 in 10.0 mi NNE 18.4 mph 24.2 mph N/A   Overcast
2:15 AM 55.4 °F - 42.8 °F 63% 30.25 in 10.0 mi North 12.7 mph 27.6 mph N/A   Overcast
2:35 AM 55.4 °F - 42.8 °F 63% 30.26 in 10.0 mi NNE 17.3 mph 24.2 mph N/A   Overcast
2:55 AM 53.6 °F - 42.8 °F 67% 30.27 in 10.0 mi North 23.0 mph 28.8 mph N/A   Overcast
3:15 AM 53.6 °F - 42.8 °F 67% 30.29 in 10.0 mi North 11.5 mph 21.9 mph N/A   Mostly Cloudy
3:35 AM 51.8 °F - 42.8 °F 71% 30.29 in 10.0 mi NNE 21.9 mph 28.8 mph N/A   Scattered Clouds
3:55 AM 51.8 °F - 41.0 °F 67% 30.30 in 10.0 mi NNE 13.8 mph 23.0 mph N/A   Clear
4:15 AM 51.8 °F - 37.4 °F 58% 30.31 in 10.0 mi NNE 15.0 mph 27.6 mph N/A   Clear
4:35 AM 51.8 °F - 33.8 °F 50% 30.32 in 10.0 mi NNE 21.9 mph 28.8 mph N/A   Clear
4:55 AM 50.0 °F - 32.0 °F 50% 30.32 in 10.0 mi NNE 20.7 mph 29.9 mph N/A   Clear
5:15 AM 50.0 °F - 32.0 °F 50% 30.34 in 10.0 mi NNE 15.0 mph 26.5 mph N/A   Clear
5:35 AM 48.2 °F - 33.8 °F 58% 30.34 in 10.0 mi NNE 16.1 mph 21.9 mph N/A   Clear
6:15 AM 48.2 °F - 32.0 °F 54% 30.37 in 10.0 mi NNE 13.8 mph 20.7 mph N/A   Clear
6:35 AM 46.4 °F 40.1 °F 33.8 °F 62% 30.37 in 10.0 mi NNE 15.0 mph 24.2 mph N/A   Clear
6:55 AM 46.4 °F 39.5 °F 33.8 °F 62% 30.38 in 10.0 mi NNE 17.3 mph 20.7 mph N/A   Clear
7:15 AM 46.4 °F 39.8 °F 35.6 °F 66% 30.40 in 10.0 mi North 16.1 mph 20.7 mph N/A   Clear
7:35 AM 46.4 °F 41.1 °F 35.6 °F 66% 30.41 in 10.0 mi North 11.5 mph 18.4 mph N/A   Clear
7:55 AM 46.4 °F 40.4 °F 37.4 °F 71% 30.42 in 10.0 mi North 13.8 mph 21.9 mph N/A   Clear
8:15 AM 46.4 °F 40.7 °F 37.4 °F 71% 30.43 in 10.0 mi North 12.7 mph 19.6 mph N/A   Clear
8:35 AM 46.4 °F 40.4 °F 35.6 °F 66% 30.44 in 10.0 mi North 13.8 mph 24.2 mph N/A   Clear
8:55 AM 48.2 °F - 33.8 °F 58% 30.45 in 10.0 mi NNE 17.3 mph 26.5 mph N/A   Clear
9:15 AM 50.0 °F - 32.0 °F 50% 30.46 in 10.0 mi NNE 20.7 mph 32.2 mph N/A   Clear
9:35 AM 50.0 °F - 32.0 °F 50% 30.47 in 10.0 mi NNE 20.7 mph 32.2 mph N/A   Clear
9:55 AM 50.0 °F - 32.0 °F 50% 30.47 in 10.0 mi NNE 20.7 mph 31.1 mph N/A   Clear
10:15 AM 50.0 °F - 32.0 °F 50% 30.48 in 10.0 mi NNE 21.9 mph 31.1 mph N/A   Clear
10:35 AM 51.8 °F - 30.2 °F 44% 30.49 in 10.0 mi NNE 18.4 mph 27.6 mph N/A   Clear
10:55 AM 53.6 °F - 30.2 °F 41% 30.49 in 10.0 mi NNE 16.1 mph 23.0 mph N/A   Clear
11:15 AM 53.6 °F - 28.4 °F 38% 30.49 in 10.0 mi North 21.9 mph 27.6 mph N/A   Clear
11:35 AM 51.8 °F - 28.4 °F 41% 30.48 in 10.0 mi North 16.1 mph 33.4 mph N/A   Clear
11:55 AM 53.6 °F - 28.4 °F 38% 30.47 in 10.0 mi North 19.6 mph 32.2 mph N/A   Clear
12:15 PM 53.6 °F - 28.4 °F 38% 30.47 in 10.0 mi North 17.3 mph 31.1 mph N/A   Clear
12:35 PM 53.6 °F - 28.4 °F 38% 30.47 in 10.0 mi North 21.9 mph 33.4 mph N/A   Clear
12:55 PM 53.6 °F - 30.2 °F 41% 30.46 in 10.0 mi North 21.9 mph 29.9 mph N/A   Clear
1:15 PM 53.6 °F - 30.2 °F 41% 30.45 in 10.0 mi North 20.7 mph 28.8 mph N/A   Clear
1:35 PM 53.6 °F - 30.2 °F 41% 30.44 in 10.0 mi North 16.1 mph 25.3 mph N/A   Clear
1:55 PM 53.6 °F - 30.2 °F 41% 30.44 in 10.0 mi North 17.3 mph 27.6 mph N/A   Clear
2:15 PM 53.6 °F - 28.4 °F 38% 30.44 in 10.0 mi North 18.4 mph 23.0 mph N/A   Clear
2:35 PM 53.6 °F - 28.4 °F 38% 30.44 in 10.0 mi North 15.0 mph 23.0 mph N/A   Clear
2:55 PM 53.6 °F - 28.4 °F 38% 30.44 in 10.0 mi North 17.3 mph 26.5 mph N/A   Clear
3:15 PM 53.6 °F - 26.6 °F 35% 30.44 in 10.0 mi North 15.0 mph 27.6 mph N/A   Clear
3:35 PM 51.8 °F - 28.4 °F 41% 30.44 in 10.0 mi NNW 12.7 mph 25.3 mph N/A   Clear
3:55 PM 51.8 °F - 26.6 °F 38% 30.43 in 10.0 mi North 15.0 mph 18.4 mph N/A   Clear
4:15 PM 51.8 °F - 26.6 °F 38% 30.43 in 10.0 mi North 13.8 mph 23.0 mph N/A   Clear
4:35 PM 50.0 °F - 24.8 °F 37% 30.43 in 10.0 mi North 15.0 mph 25.3 mph N/A   Clear
4:55 PM 50.0 °F - 26.6 °F 40% 30.43 in 10.0 mi North 8.1 mph - N/A   Clear
5:15 PM 48.2 °F - 24.8 °F 40% 30.43 in 10.0 mi North 9.2 mph 17.3 mph N/A   Clear
5:35 PM 46.4 °F 41.1 °F 24.8 °F 43% 30.44 in 10.0 mi North 11.5 mph - N/A   Clear
5:55 PM 46.4 °F 42.4 °F 23.0 °F 40% 30.44 in 10.0 mi NNW 8.1 mph - N/A   Clear
6:15 PM 44.6 °F 40.7 °F 23.0 °F 43% 30.45 in 10.0 mi NNW 6.9 mph - N/A   Clear
6:35 PM 44.6 °F 41.4 °F 23.0 °F 43% 30.45 in 10.0 mi North 5.8 mph - N/A   Clear
6:55 PM 42.8 °F 39.3 °F 23.0 °F 46% 30.45 in 10.0 mi North 5.8 mph - N/A   Clear
7:15 PM 42.8 °F 37.5 °F 23.0 °F 46% 30.45 in 10.0 mi North 9.2 mph - N/A   Clear
7:35 PM 42.8 °F 38.6 °F 23.0 °F 46% 30.45 in 10.0 mi North 6.9 mph - N/A   Clear
7:55 PM 41.0 °F 37.1 °F 23.0 °F 49% 30.46 in 10.0 mi NNW 5.8 mph - N/A   Clear
8:15 PM 41.0 °F 38.0 °F 23.0 °F 49% 30.45 in 10.0 mi NNW 4.6 mph - N/A   Clear
8:35 PM 39.2 °F 35.0 °F 23.0 °F 52% 30.45 in 10.0 mi NNW 5.8 mph - N/A   Clear
8:55 PM 37.4 °F 32.1 °F 23.0 °F 56% 30.45 in 10.0 mi North 6.9 mph - N/A   Clear
9:15 PM 37.4 °F 32.1 °F 23.0 °F 56% 30.45 in 10.0 mi North 6.9 mph - N/A   Clear
9:35 PM 37.4 °F 32.8 °F 23.0 °F 56% 30.46 in 10.0 mi North 5.8 mph - N/A   Clear
9:55 PM 35.6 °F 32.8 °F 23.0 °F 60% 30.46 in 10.0 mi NW 3.5 mph - N/A   Clear
10:15 PM 35.6 °F 32.8 °F 23.0 °F 60% 30.46 in 10.0 mi NW 3.5 mph - N/A   Clear
10:35 PM 35.6 °F 31.7 °F 23.0 °F 60% 30.46 in 10.0 mi NW 4.6 mph - N/A   Clear
10:55 PM 35.6 °F 31.7 °F 23.0 °F 60% 30.46 in 10.0 mi NNW 4.6 mph - N/A   Clear
11:15 PM 35.6 °F 32.8 °F 23.0 °F 60% 30.45 in 10.0 mi NNW 3.5 mph - N/A   Clear
11:35 PM 35.6 °F 31.7 °F 23.0 °F 60% 30.45 in 10.0 mi NNW 4.6 mph - N/A   Clear
11:55 PM 33.8 °F 28.6 °F 21.2 °F 60% 30.44 in 10.0 mi NNW 5.8 mph - N/A   Clear